Location: ??
(35.1714°N, 128.2806°E)
Time: 04:08:23
(UTC+00:00)

Tiangong - Pass Details

Date: 20 June 2021
Orbit: 373 x 385 km, 41.5° (Epoch: 04 August)

Event Time Altitude Azimuth Distance (km) Brightness Sun altitude
Exits shadow 18:07:25 50° 100° (E) 489 1.7 -20.4°
Drops below altitude 10° 18:09:58 10° 70° (ENE) 1,396 4.7 -20.0°
Sets 18:12:03 0° 68° (ENE) 2,254 6.0 -19.8°
